Zurück zum Katalog

NOAA 16 DEB

AktivPO
NORAD 41708·DEBRIS·🇺🇸 United States

Gestartet Sep 21, 2000 von Vandenberg Space Force Base

Loading…

Nächste Überflüge (nächste 24 Stunden)

TLE

AktuellSource: Space-Track

Epoche: Sep 14, 2026, 02:46 UTC

1 41708U 00055PN  26257.11565630  .00006261  00000-0  17337-2 0  9997
2 41708  98.8704  36.9916 0011072 218.4991 141.5411 14.46956282539828

Verfolge NOAA 16 DEB in Echtzeit mit AllMySat

Download on the App Store